This is the latest recevied weather packets stored in our database for station/object K3PPP. If no packets are shown the sender has not sent any weather packets the latest 10 day(s).
| Time | Temp. | Humidity | Pressure | Rain* | Wind** | Luminosity | Snow |
|---|---|---|---|---|---|---|---|
| 1777905004 | 14.44° C | 51% | 1012.4 hPa | 0 mm | - | 573 W/m² | - |
| 1777904701 | 13.89° C | 52% | 1012.4 hPa | 0 mm | - | 567 W/m² | - |
| 1777904397 | 14.44° C | 53% | 1012.2 hPa | 0 mm | - | 557 W/m² | - |
| 1777904094 | 15° C | 52% | 1012.4 hPa | 0 mm | - | 546 W/m² | - |
| 1777903791 | 15° C | 51% | 1012.4 hPa | 0 mm | - | 530 W/m² | - |
| 1777903487 | 15° C | 51% | 1012.4 hPa | 0 mm | - | 514 W/m² | - |
| 1777903184 | 13.89° C | 54% | 1012.5 hPa | 0 mm | - | 510 W/m² | - |
| 1777902880 | 13.33° C | 54% | 1012.5 hPa | 0 mm | - | 518 W/m² | - |
| 1777902578 | 13.33° C | 54% | 1012.5 hPa | 0 mm | - | 501 W/m² | - |
| 1777902274 | 13.33° C | 54% | 1012.7 hPa | 0 mm | - | 193 W/m² | - |
| 1777901972 | 13.33° C | 54% | 1012.4 hPa | 0 mm | - | 488 W/m² | - |
| 1777901670 | 12.78° C | 55% | 1012.6 hPa | 0 mm | - | 423 W/m² | - |
| 1777901367 | 12.78° C | 55% | 1012.8 hPa | 0 mm | - | 409 W/m² | - |
| 1777901065 | 12.22° C | 54% | 1012.9 hPa | 0 mm | - | 360 W/m² | - |
| 1777900761 | 12.78° C | 53% | 1012.9 hPa | 0 mm | - | 314 W/m² | - |
| 1777900459 | 12.78° C | 56% | 1012.9 hPa | 0 mm | - | 469 W/m² | - |
| 1777900156 | 12.22° C | 59% | 1012.7 hPa | 0 mm | - | 372 W/m² | - |
| 1777899852 | 11.67° C | 58% | 1012.8 hPa | 0 mm | - | 243 W/m² | - |
| 1777899549 | 11.67° C | 58% | 1012.8 hPa | 0 mm | - | 206 W/m² | - |
| 1777899246 | 11.11° C | 60% | 1012.6 hPa | 0 mm | - | 301 W/m² | - |
| 1777898944 | 11.11° C | 61% | 1012.9 hPa | 0 mm | - | 289 W/m² | - |
| 1777898641 | 10.56° C | 61% | 1012.7 hPa | 0 mm | - | 276 W/m² | - |
| 1777898338 | 10.56° C | 60% | 1012.6 hPa | 0 mm | - | 235 W/m² | - |
| 1777898036 | 10.56° C | 60% | 1012.7 hPa | 0 mm | - | 242 W/m² | - |
| 1777897731 | 10.56° C | 61% | 1012.7 hPa | 0 mm | - | 220 W/m² | - |
* Rain latest hour (hover to see other rain measurements)
** Current wind speed in m/s (hover to see current wind gust speed)